SCP
0 0 0 0 0 0 0 0 0 0 0 0 0 0 0 0 0 0 0 0 0 0 0 0 0 0 0 0 0 0 0 0 0 0 0 0 0 0 0 0 0 0 0
0 0 0 0 0 0 0 0 0 0 0 0 0 0 0 0 0 0 0 0 0 0 0 0 0 0 0 0 0 0 0 0 0 0 0 0 0 0 0 0 0 0 0
0 0 0 0 0 0 0 0 0 0 0 0 0 0 0 0 0 0 0 0 0 0 0 0 0 0 0 0 0 0 0 0 0 0 0 0 0 0 0 0 0 0 0
0 0 0 0 0 0 0 0 0 0 0 0 0 0 0 0 0 0 0 0 0 0 0 0 0 0 0 0 0 0 0 0 0 0 0 0 0 0 0 0 0 0 0
0 0 0 0 0 0 0 0 0 0 0 0 0 0 0 0 0 0 0 0 0 0 0 0 0 0 0 0 0 0 0 0 0 0 0 0 0 0 0 0 0 0 0
0 0 0 0 0 0 0 0 0 0 0 0 0 0 0 0 0 0 0 0 0 0 0 0 0 0 0 0 0 0 0 0 0 0 0 0 0 0 0 0 0 0 0
0 0 0 0 0 0 0 0 0 0 0 0 0 0 0 0 0 0 0 0 0 0 0 0 0 0 0 0 0 0 0 0 0 0 0 0 0 0 0 0 0 0 0
0 0 0 0 0 0 0 0 0 0 0 0 0 0 0 0 0 0 0 0 0 0 0 0 0 0 0 0 0 0 0 0 0 0 0 0 0 0 0 0 0 0 0
0 0 0 0 0 0 0 0 0 0 0 0 0 0 0 0 0 0 0 0 0 0 0 0 0 0 0 0 0 0 0 0 0 0 0 0 0 0 0 0 0 0 0
0 0 0 0 0 0 0 0 0 0 0 0 0 0 0 0 0 0 0 0 0 0 0 0 0 0 0 0 0 0 0 0 0 0 0 0 0 0 0 0 0 0 0
0 0 0 0 0 0 0 0 0 0 0 0 0 0 0 0 0 0 0 0 0 0 0 0 0 0 0 0 0 0 0 0 0 0 0 0 0 0 0 0 0 0 0
0 0 0 0 0 0 0 0 0 0 0 0 0 0 0 0 0 0 0 0 0 0 0 0 0 0 0 0 0 0 0 0 0 0 0 0 0 0 0 0 0 0 0
0 0 0 0 0 0 0 0 0 0 0 0 0 0 0 0 0 0 0 0 0 0 0 0 0 0 0 0 0 0 0 0 0 0 0 0 0 0 0 0 0 0 0
0 0 0 0 0 0 0 0 0 0 0 0 0 0 0 0 0 0 0 0 0 0 0 0 0 0 0 0 0 0 0 0 0 0 0 0 0 0 0 0 0 0 0
0 0 0 0 0 0 0 0 0 0 0 0 0 0 0 0 0 0 0 0 0 0 0 0 0 0 0 0 0 0 0 0 0 0 0 0 0 0 0 0 0 0 0
0 0 0 0 0 0 0 0 0 0 0 0 0 0 0 0 0 0 0 0 0 0 0 0 0 0 0 0 0 0 0 0 0 0 0 0 0 0 0 0 0 0 0
0 0 0 0 0 0 0 0 0 0 0 0 0 0 0 0 0 0 0 0 0 0 0 0 0 0 0 0 0 0 0 0 0 0 0 0 0 0 0 0 0 0 0
0 0 0 0 0 0 0 0 0 0 0 0 0 0 0 0 0 0 0 0 0 0 0 0 0 0 0 0 0 0 0 0 0 0 0 0 0 0 0 0 0 0 0
0 0 0 0 0 0 0 0 0 0 0 0 0 0 0 0 0 0 0 0 0 0 0 0 0 0 0 0 0 0 0 0 0 0 0 0 0 0 0 0 0 0 0
0 0 0 0 0 0 0 0 0 0 0 0 0 0 0 0 0 0 0 0 0 0 0 0 0 0 0 0 0 0 0 0 0 0 0 0 0 0 0 0 0 0 0
0 0 0 0 0 0 0 0 0 0 0 0 0 0 0 0 0 0 0 0 0 0 0 0 0 0 0 0 0 0 0 0 0 0 0 0 0 0 0 0 0 0 0
0 0 0 0 0 0 0 0 0 0 0 0 0 0 0 0 0 0 0 0 0 0 0 0 0 0 0 0 0 0 0 0 0 0 0 0 0 0 0 0 0 0 0
0 0 0 0 0 0 0 0 0 0 0 0 0 0 0 0 0 0 0 0 0 0 0 0 0 0 0 0 0 0 0 0 0 0 0 0 0 0 0 0 0 0 0
0 0 0 0 0 0 0 0 0 0 0 0 0 0 0 0 0 0 0 0 0 0 0 0 0 0 0 0 0 0 0 0 0 0 0 0 0 0 0 0 0 0 0
0 0 0 0 0 0 0 0 0 0 0 0 0 0 0 0 0 0 0 0 0 0 0 0 0 0 0 0 0 0 0 0 0 0 0 0 0 0 0 0 0 0 0
0 0 0 0 0 0 0 0 0 0 0 0 0 0 0 0 0 0 0 0 0 0 0 0 0 0 0 0 0 0 0 0 0 0 0 0 0 0 0 0 0 0 0
Wind_Speed
1 1 1 1 1 1 1 1 1 1 1 1 1 2 3 3 3 3 3 8 9 10 11 11 11 11 12 12 12 11 11 11 10 9 9 9 8 8 8 8 7 7 6
2 2 1 1 1 1 1 1 1 1 1 1 2 2 3 4 4 4 4 5 9 10 11 12 12 12 12 12 12 12 12 12 11 11 10 10 9 9 9 9 8 8 7
4 3 2 2 2 2 2 1 1 1 1 2 2 2 2 4 4 4 5 4 5 9 11 12 12 12 12 12 13 13 13 12 12 11 11 10 10 9 9 9 9 9 8
5 3 3 3 2 2 2 2 2 1 2 2 2 2 2 3 4 5 5 5 4 5 8 12 12 12 13 14 14 14 13 13 12 12 12 12 11 11 10 10 10 9 9
5 4 3 3 2 2 2 3 2 2 2 2 2 2 2 3 4 5 5 6 6 6 5 7 11 12 14 14 14 14 14 14 13 13 13 13 13 12 11 11 11 10 10
4 4 3 3 3 2 2 2 2 2 2 2 2 2 2 3 3 4 5 5 5 7 7 7 6 8 13 14 14 15 15 15 14 14 14 14 14 13 12 12 12 12 11
4 4 3 3 3 3 3 3 2 2 2 1 0 2 2 2 3 3 4 4 5 6 6 7 6 5 5 10 13 14 15 15 15 15 15 15 15 14 13 13 13 12 12
4 4 4 3 4 3 3 3 3 2 1 2 2 0 2 3 2 2 2 4 4 4 5 7 7 7 6 5 7 13 14 15 15 15 15 16 15 15 14 14 14 14 13
4 4 4 4 4 4 3 4 4 4 2 2 2 3 2 2 2 2 2 2 3 3 4 5 6 7 7 6 6 9 13 13 15 16 15 14 14 14 14 15 15 15 14
3 3 3 4 3 3 3 4 4 3 3 3 2 3 3 2 2 2 2 2 2 4 4 4 5 5 6 6 7 9 12 13 14 15 15 14 14 14 14 15 15 15 15
2 3 3 3 3 3 4 3 3 4 4 4 3 2 3 2 3 3 4 3 2 2 3 4 4 4 5 5 5 8 11 12 12 13 13 13 13 13 14 15 16 16 16
1 2 3 3 3 3 3 3 3 4 4 4 3 3 3 3 3 4 5 4 3 3 3 3 4 4 4 4 6 8 10 10 10 11 12 12 12 12 12 13 14 15 14
2 2 2 2 2 3 3 3 3 3 4 4 4 4 4 4 3 3 3 3 3 2 2 2 3 3 3 3 4 6 7 8 8 9 10 11 11 11 11 11 12 13 13
3 2 2 2 3 3 3 2 2 3 3 4 5 4 3 4 4 4 3 3 3 3 3 4 2 3 3 2 3 4 4 5 6 7 8 8 8 8 8 9 9 9 10
2 2 2 2 2 2 2 2 2 3 2 3 4 4 3 3 3 4 3 4 4 4 4 3 2 2 2 2 3 3 4 4 5 6 6 6 6 7 7 7 7 7 7
2 2 2 2 1 1 1 1 1 2 2 2 2 2 3 2 2 2 3 3 4 4 4 2 3 2 2 2 2 3 3 4 4 4 4 4 5 5 5 6 6 6 7
3 3 2 2 1 1 1 1 1 1 2 2 1 1 2 2 2 2 2 2 3 3 5 3 2 2 2 2 2 2 2 2 2 2 3 3 3 3 3 4 4 5 5
3 2 2 2 1 1 1 1 2 1 1 1 1 1 2 1 1 1 1 2 2 3 4 4 2 2 2 2 2 1 1 1 1 1 2 2 2 2 2 3 3 3 3
3 3 3 3 2 2 1 2 2 1 1 1 1 1 2 1 1 1 1 2 2 2 3 3 2 2 1 1 1 1 1 1 1 0 1 1 1 1 2 2 2 2 2
4 3 3 2 2 2 1 1 1 1 1 0 0 0 1 1 2 2 1 2 2 2 1 2 2 1 1 1 0 1 1 1 1 1 1 1 1 1 0 1 1 1 2
4 3 3 2 2 1 1 2 2 2 1 0 0 0 1 1 2 2 1 2 1 1 1 1 1 1 1 1 1 1 1 1 1 0 1 1 1 1 1 1 1 1 1
4 4 3 2 2 1 1 2 2 2 2 1 0 1 1 1 2 2 2 2 1 1 1 1 1 2 2 2 1 1 0 0 1 0 0 0 0 0 1 1 1 1 2
4 4 3 3 2 1 1 2 3 2 2 1 0 1 1 2 2 2 2 2 2 3 2 1 1 2 2 2 1 1 1 1 1 0 1 1 0 1 1 0 0 1 1
4 3 3 3 2 1 1 2 2 2 2 1 1 0 1 2 2 1 1 2 2 2 2 1 1 2 2 1 1 1 1 1 0 0 0 1 1 1 1 1 0 1 1
3 3 3 3 2 1 1 2 3 2 2 1 1 1 1 1 3 2 1 1 2 2 2 2 1 1 1 1 1 1 1 1 0 1 0 1 1 1 1 1 1 1 2
4 4 3 2 2 1 1 2 3 2 1 1 1 1 2 2 3 3 1 0 1 2 2 2 3 3 2 2 2 1 1 1 0 1 0 1 1 0 1 1 1 1 1
Wind_Direction
199 202 191 174 174 155 160 153 146 151 174 203 210 204 209 210 207 204 211 217 217 214 212 211 210 210 207 207 206 205 206 206 206 206 207 208 207 206 207 206 203 204 205
195 200 204 196 205 201 202 191 190 193 221 230 251 230 220 219 216 214 218 226 226 219 217 217 216 217 216 216 214 214 214 214 212 212 212 213 212 212 213 211 208 209 212
195 192 199 208 211 195 194 200 213 205 230 237 249 245 228 223 221 222 223 223 229 229 225 223 223 222 223 222 221 221 221 221 217 215 215 216 215 216 217 217 214 214 215
196 188 199 216 207 191 188 194 201 205 230 238 245 247 232 224 229 228 226 225 224 230 231 230 228 227 227 228 225 226 226 225 221 218 217 219 219 218 219 222 222 220 219
195 189 202 215 196 191 196 208 194 194 218 233 245 246 235 228 230 230 228 228 225 226 228 234 234 231 232 234 232 231 230 228 224 222 222 222 222 221 221 224 225 223 224
196 192 202 206 187 190 209 206 202 204 220 229 259 269 252 239 233 231 232 231 229 228 227 232 236 238 236 238 238 235 233 231 227 224 225 225 225 223 222 223 224 225 226
199 193 207 198 186 198 212 203 191 211 225 168 127 313 300 256 242 237 233 232 232 229 228 228 230 232 240 241 240 238 236 234 230 226 226 226 227 225 223 223 225 226 226
201 202 202 202 197 203 214 208 190 189 214 173 163 184 321 323 292 254 237 233 236 230 233 233 229 229 235 238 238 238 238 239 238 234 229 226 225 224 224 225 225 225 227
208 210 205 197 197 197 213 216 199 193 207 206 186 168 188 248 301 305 263 250 247 238 239 238 233 234 234 234 240 240 239 240 242 242 236 230 226 226 226 226 226 226 227
212 209 204 197 198 195 213 224 210 203 195 215 214 211 206 189 214 296 303 271 259 250 248 244 242 237 235 234 233 233 237 237 240 243 240 236 230 226 227 229 230 230 228
219 210 200 197 201 205 222 226 214 210 204 209 206 202 210 210 210 224 270 284 282 259 251 248 245 244 238 234 235 237 236 236 239 240 240 239 236 232 229 230 233 235 232
227 220 203 201 205 210 224 228 221 216 218 219 217 209 204 205 205 212 242 259 267 266 256 252 248 248 243 240 241 241 239 236 235 237 238 238 238 237 234 234 234 236 237
223 229 209 204 211 216 223 228 226 231 224 225 227 228 227 231 215 206 226 250 257 264 261 252 242 248 248 242 248 252 249 241 235 234 234 235 236 237 237 236 238 239 238
221 217 205 215 218 215 223 225 237 240 233 233 238 232 232 236 225 218 216 226 257 259 247 250 245 237 248 245 252 252 254 245 240 235 235 235 236 236 235 235 241 244 240
217 209 205 208 216 211 216 218 245 254 246 242 245 243 243 244 233 231 226 223 233 259 263 238 235 240 237 240 253 254 252 249 245 242 237 235 234 230 231 231 232 234 237
206 192 203 201 200 202 211 199 240 257 252 259 251 250 257 258 245 235 230 233 230 237 255 245 234 249 247 263 264 262 260 261 250 241 238 229 227 227 229 231 231 231 231
192 194 201 196 190 205 201 196 240 260 261 276 278 263 275 272 264 254 236 233 233 234 253 267 246 262 249 265 286 276 271 272 268 234 227 216 217 222 232 237 234 228 225
190 185 181 175 195 207 194 200 237 259 258 272 279 278 288 297 293 290 267 252 242 231 240 262 267 259 257 267 273 275 284 277 275 217 195 196 196 206 221 231 232 233 230
182 175 178 181 197 199 201 211 216 232 239 253 257 261 283 286 296 294 281 276 268 253 236 243 257 246 253 267 275 286 296 306 313 76 148 157 180 199 227 237 237 235 229
187 178 177 180 189 195 205 205 195 204 217 251 278 278 303 301 298 298 286 278 273 265 243 245 256 258 262 268 244 288 316 326 315 6 30 68 105 129 117 296 258 231 218
182 164 164 172 182 197 225 206 191 176 159 127 42 346 315 318 313 307 308 293 269 251 246 248 265 283 276 285 273 256 278 310 302 10 349 21 44 36 28 26 44 64 88
163 154 171 180 190 222 216 187 174 161 150 145 117 337 348 350 349 355 4 10 12 261 255 251 250 264 266 269 274 247 228 295 280 2 295 313 88 42 354 3 33 85 100
165 165 173 176 188 203 186 176 176 155 143 139 128 342 343 355 354 346 353 13 22 24 25 264 271 277 280 275 260 248 237 239 248 264 234 253 242 253 284 336 98 137 128
163 166 164 159 159 119 126 142 147 140 124 111 95 357 329 333 348 343 354 22 16 9 356 325 270 287 299 302 250 240 231 217 170 48 222 238 268 268 284 284 268 176 170
156 161 151 149 149 111 93 143 145 131 119 94 59 42 20 350 356 24 72 15 355 345 356 18 16 340 358 41 77 105 96 120 274 248 217 229 239 275 259 255 245 219 216
161 159 149 146 146 138 116 140 142 133 132 118 60 42 42 34 25 49 87 73 349 334 348 8 18 21 19 31 56 101 169 154 17 256 197 222 208 214 258 240 261 255 236